Lapse_Rate
5.9 4.9 4.6 4.5 4.1 3.1 3.7 3.0 2.2 1.6 2.6 2.8 2.7 1.8 1.4 1.3 1.4 2.8 3.8 3.4 3.3 3.2 2.6 2.3 2.5 2.6 1.1 1.2 2.0 2.4 2.9 2.7 2.2 3.6 4.0 3.7 3.5 3.6 3.4 4.9 4.6 5.3 6.2
4.8 4.7 4.1 4.4 3.8 3.4 3.4 2.8 3.0 2.2 3.4 3.3 2.1 2.2 1.7 1.5 1.9 2.7 3.5 3.9 3.7 3.9 3.7 2.5 1.3 1.5 0.9 1.6 2.4 2.6 2.9 3.0 3.0 4.6 3.6 4.2 4.2 4.4 4.2 3.5 4.4 3.8 5.3
4.6 4.0 4.0 3.6 3.4 3.4 2.4 2.8 2.7 2.5 2.7 3.6 2.8 2.0 1.7 1.9 2.2 2.4 2.1 3.0 3.9 3.5 2.6 1.9 1.4 1.8 2.5 2.4 2.6 3.0 4.1 4.5 3.8 3.7 4.6 4.7 4.4 4.1 4.0 4.8 3.8 3.7 3.8
4.6 4.1 2.9 2.8 3.0 2.7 1.4 1.9 2.8 3.6 3.5 3.0 3.4 4.0 3.9 4.1 2.0 1.6 1.6 2.2 3.6 2.7 2.4 2.2 2.6 2.8 2.5 1.8 2.0 3.4 3.0 3.4 4.3 3.7 4.9 4.2 4.4 4.6 4.4 4.1 4.5 4.6 5.5
4.3 3.7 1.9 2.2 2.7 1.5 1.8 2.5 3.4 3.5 4.1 3.7 3.9 3.5 2.0 1.3 1.0 1.2 1.4 1.5 1.8 2.7 2.9 3.1 3.1 2.6 2.6 2.2 2.0 1.9 2.7 3.5 3.8 4.3 4.4 4.5 3.9 3.8 4.2 4.1 4.4 4.3 4.8
4.1 3.2 2.3 2.4 1.7 1.9 1.5 2.0 3.2 3.7 3.7 3.5 2.7 2.1 1.3 1.3 1.8 1.0 1.1 1.0 1.1 1.4 2.7 3.2 3.1 3.3 2.8 2.4 2.6 3.4 3.6 3.9 4.1 4.2 4.1 4.8 5.5 5.3 4.7 4.0 3.8 4.2 4.6
3.4 2.9 2.4 2.4 2.6 1.9 2.7 3.3 3.2 2.5 1.9 1.4 1.0 1.3 1.5 2.0 1.6 1.0 1.3 1.4 1.7 2.0 1.8 3.1 3.3 3.1 3.8 4.2 4.2 3.7 4.1 4.2 4.4 4.7 4.7 4.6 4.8 4.9 4.9 4.8 4.4 4.3 4.1
3.9 3.0 2.1 1.5 1.5 2.5 3.3 2.5 3.2 1.8 1.5 1.3 1.0 1.1 0.9 0.9 1.3 1.9 1.7 1.7 2.2 2.3 2.9 3.2 4.0 4.0 4.6 5.2 4.6 3.9 4.3 4.5 4.2 4.8 4.4 4.6 4.9 5.1 5.7 5.2 4.8 4.2 4.0
2.0 1.9 1.6 1.6 1.7 2.1 1.3 1.9 2.4 2.6 2.1 0.9 0.9 1.3 1.1 1.4 1.6 1.7 1.4 1.8 2.9 3.4 3.3 3.9 3.8 4.0 4.7 5.1 5.1 4.3 5.0 4.9 4.7 4.5 4.6 4.6 4.9 4.9 4.9 5.6 5.8 5.7 3.5
2.3 2.4 2.7 2.6 3.0 2.8 1.9 1.6 2.1 2.1 1.2 0.8 1.1 2.0 2.2 2.1 1.9 1.9 2.5 2.8 2.8 4.4 3.7 4.3 4.2 4.7 5.0 4.9 5.1 4.6 5.1 5.4 4.5 5.2 5.2 5.7 6.2 6.0 5.4 5.4 5.3 5.5 5.4
3.3 3.1 3.1 3.0 2.9 2.9 1.8 1.6 1.7 1.1 0.7 0.8 0.4 0.9 1.8 2.1 2.3 2.4 3.0 3.3 3.7 4.1 4.4 4.1 4.6 5.6 4.9 5.4 5.6 5.6 5.3 5.3 5.4 5.5 5.4 6.3 6.1 5.5 5.2 4.6 4.9 4.8 5.1
3.1 2.8 2.3 2.1 2.2 2.2 1.5 1.5 1.4 1.3 0.9 0.7 0.7 1.3 1.8 2.4 3.1 3.2 3.5 3.4 4.1 4.3 4.4 4.6 5.2 5.7 5.5 5.5 5.6 5.7 5.5 5.3 5.6 5.7 5.7 6.0 7.3 5.9 4.7 3.5 4.0 4.0 4.0
3.2 3.5 2.6 2.0 1.5 2.0 1.9 1.6 1.6 1.8 1.3 1.4 1.5 1.8 2.2 2.5 3.2 3.5 3.5 3.0 4.1 3.9 4.2 4.9 5.7 5.7 5.2 5.5 5.9 5.3 5.3 5.6 5.8 6.0 6.1 6.2 5.6 4.7 3.8 4.1 4.0 3.7 5.3
3.7 3.2 2.6 2.4 2.4 2.5 2.6 1.8 2.0 2.0 2.0 2.3 2.3 2.4 2.9 3.1 2.9 3.2 3.6 3.6 3.8 4.0 4.6 5.2 5.3 5.4 5.6 5.9 6.1 5.1 4.6 4.9 5.3 5.4 5.3 5.2 5.1 4.9 4.4 4.3 4.1 4.6 4.1
3.9 3.3 2.6 2.5 2.5 2.4 2.5 2.0 2.1 2.0 2.2 2.4 2.8 2.8 3.1 2.8 2.9 3.4 3.9 4.1 4.5 5.0 5.0 4.7 4.8 5.2 5.7 6.1 5.2 4.8 4.1 4.4 4.6 4.7 5.1 4.7 5.2 6.4 4.9 4.6 4.3 4.4 4.2
4.7 3.2 2.0 2.0 2.3 2.2 1.9 2.5 1.9 2.1 2.3 2.6 3.0 3.6 2.6 2.9 3.7 3.9 4.6 5.4 6.1 7.2 5.7 4.9 4.5 5.0 5.8 4.9 4.2 3.7 3.5 4.5 4.5 4.7 4.5 4.9 6.1 6.3 6.4 6.6 6.6 6.0 4.9
3.4 3.1 2.0 1.8 2.0 1.2 1.6 2.1 1.7 1.7 2.5 3.1 4.0 3.1 3.4 3.7 4.3 4.4 5.1 6.2 6.6 6.0 5.2 4.9 5.0 5.2 4.9 3.4 4.0 3.9 3.2 3.8 3.7 3.9 4.2 5.1 5.4 4.8 4.9 5.8 5.8 5.5 6.1
4.1 3.8 3.1 2.5 1.7 0.9 1.5 0.9 0.8 1.7 2.4 3.2 3.0 3.2 3.8 3.8 4.6 4.8 5.4 5.6 5.8 5.8 4.4 4.5 5.5 5.4 4.7 3.5 3.8 3.6 2.7 3.1 3.2 3.4 3.9 4.2 4.1 3.8 4.6 4.6 4.6 4.5 4.5
-0.4 -1.3 -2.0 -1.1 -0.5 0.3 -0.2 0.3 1.1 1.6 1.5 1.9 3.5 4.6 4.6 5.2 5.8 5.9 5.0 5.1 5.7 5.0 5.0 5.5 5.3 5.3 3.9 3.6 3.6 2.9 2.1 2.9 3.6 4.2 4.5 4.5 4.3 5.0 6.3 4.6 4.5 4.3 4.4
-1.6 -1.9 -2.2 -2.1 -2.3 -2.2 -1.7 -1.5 -0.7 0.6 1.5 3.7 4.9 5.8 6.5 6.3 5.1 4.2 4.6 5.4 5.0 5.2 4.8 4.8 4.9 4.8 3.6 3.7 3.9 3.4 1.2 2.9 2.9 3.7 4.0 5.5 4.6 5.7 6.0 4.2 3.9 3.4 4.9
-1.4 -1.5 -2.3 -2.8 -2.6 -1.7 -1.0 -0.8 0.8 2.5 5.2 6.1 6.0 4.7 4.9 4.4 4.1 5.3 5.3 5.2 4.4 3.9 3.1 3.1 3.1 3.6 2.9 2.4 4.2 4.4 2.5 2.9 3.2 3.6 3.3 3.4 5.7 6.0 6.4 6.8 4.0 3.9 5.4
-0.8 -0.4 -1.1 -0.8 0.9 2.2 2.5 2.6 2.5 3.3 3.5 4.4 5.1 4.8 4.5 5.1 6.4 5.2 4.2 3.9 3.6 3.0 2.7 1.5 2.4 1.6 2.4 3.1 4.1 4.9 4.5 3.4 2.7 3.6 3.5 3.0 5.6 6.2 6.7 6.5 6.8 7.6 6.7
0.3 1.3 1.2 1.4 2.7 3.0 3.6 3.5 3.7 5.2 4.6 4.6 5.1 4.8 4.9 4.3 3.9 3.4 3.4 3.0 2.7 0.9 2.5 2.5 1.8 2.9 2.3 2.6 4.5 5.2 5.2 4.7 2.7 2.9 3.2 4.3 5.6 6.4 6.2 6.9 7.3 6.1 4.7
2.7 3.0 3.5 3.4 3.3 4.2 4.5 4.4 4.4 4.4 4.5 4.3 4.0 3.2 2.7 2.6 2.6 2.7 2.8 2.7 1.4 1.5 3.0 3.5 3.7 3.2 3.3 3.7 3.6 3.9 4.4 4.5 3.5 2.9 3.9 3.0 3.4 2.2 2.8 2.9 5.0 4.7 4.2
3.0 2.9 3.4 4.4 5.2 4.8 4.8 5.0 4.7 4.6 4.1 3.5 3.1 2.8 1.2 2.1 2.1 2.3 2.4 2.6 2.5 3.0 3.8 3.8 3.7 3.0 2.7 3.8 5.2 4.2 3.7 4.2 3.4 1.8 1.0 1.2 1.2 2.6 3.2 3.2 3.8 3.7 3.6
3.8 3.9 4.4 4.7 5.2 5.2 5.2 5.4 5.4 4.9 4.2 3.7 2.8 2.1 1.8 1.6 2.3 2.7 3.1 3.4 4.0 4.4 4.6 5.1 4.6 4.3 4.9 5.4 6.2 6.3 5.5 5.2 4.3 2.9 2.2 2.7 2.0 2.6 2.8 2.5 3.1 2.2 2.8
Wind_Speed
15 18 19 17 15 10 14 14 13 11 10 6 5 3 4 3 3 8 11 14 18 16 16 12 9 6 4 4 3 1 2 2 3 2 3 3 4 5 5 10 12 14 16
11 14 16 17 16 16 12 11 13 13 10 7 3 3 4 2 4 8 13 17 16 13 11 9 7 9 4 5 3 3 1 1 3 2 1 2 4 3 3 5 5 8 12
17 14 18 17 15 14 12 12 12 11 7 8 4 4 5 5 3 2 3 6 13 13 14 13 11 9 6 3 1 0 2 1 2 3 3 1 2 1 2 3 2 4 4
12 12 13 15 17 15 9 11 11 11 7 7 7 11 8 8 3 3 3 7 12 13 14 13 11 8 4 3 2 1 1 3 1 0 2 1 3 3 2 2 2 3 3
16 15 16 17 13 12 12 11 9 7 6 7 8 8 7 3 3 4 7 6 9 12 10 10 9 7 6 4 4 5 5 2 2 1 1 1 1 1 2 2 3 2 2
8 7 11 13 12 9 9 7 8 4 6 7 6 8 11 9 8 5 4 4 3 6 9 11 11 10 8 4 5 5 5 3 1 1 1 2 2 2 2 2 3 3 3
12 13 13 11 11 11 9 11 11 5 5 8 7 9 11 10 10 6 4 6 3 3 4 7 6 5 5 2 4 4 3 3 1 2 2 1 2 2 2 2 2 2 2
12 13 13 11 10 11 12 13 14 10 7 10 9 6 7 4 4 5 5 4 4 4 5 8 4 6 6 1 1 0 1 2 2 4 3 2 2 1 2 2 2 2 2
12 13 11 10 11 9 10 13 14 12 9 9 7 7 6 7 6 6 6 4 5 5 6 6 3 4 4 4 3 2 3 1 2 4 5 3 1 1 1 1 1 2 2
9 12 14 13 12 12 11 11 13 15 12 10 8 7 7 7 6 6 7 6 5 5 5 4 2 3 5 6 2 1 3 3 3 3 3 3 3 0 2 1 1 2 1
15 16 15 15 14 12 13 14 14 14 13 12 9 10 9 8 8 7 6 7 6 7 5 5 3 2 3 1 2 1 4 4 4 2 4 3 2 2 1 1 2 2 1
17 17 17 16 14 14 13 15 14 15 15 12 10 10 9 8 8 7 7 8 7 8 7 5 3 2 2 3 4 3 4 3 3 3 3 3 2 1 2 2 2 1 1
13 13 11 15 16 16 15 15 14 14 12 12 11 9 9 9 8 8 8 6 6 6 6 5 4 4 5 6 4 5 5 4 4 3 3 3 1 2 2 3 2 2 1
10 12 11 14 15 15 13 10 10 11 12 11 11 11 9 9 9 7 7 7 6 6 6 6 6 6 5 6 5 5 5 5 3 2 2 2 4 4 5 3 2 2 3
7 7 8 9 9 8 7 7 10 11 12 12 11 11 10 7 6 7 6 6 6 6 6 6 6 6 5 5 6 6 6 6 4 2 2 3 5 9 5 3 2 2 2
3 9 9 9 9 10 9 8 10 12 11 12 11 9 6 8 8 7 6 4 3 1 5 6 6 7 3 9 11 7 5 5 4 3 2 2 2 5 8 6 4 1 2
6 5 8 10 9 10 12 13 12 10 11 9 6 8 10 10 7 6 7 6 5 4 5 6 5 6 6 9 11 11 5 5 4 4 3 3 3 5 4 3 2 3 5
6 5 1 5 7 7 10 7 8 8 9 8 9 9 10 8 8 7 6 4 3 5 5 6 6 5 4 11 11 11 6 4 4 5 5 5 5 5 5 4 3 3 4
7 6 6 6 7 6 7 10 10 11 12 10 10 8 8 9 6 5 4 3 4 3 4 4 6 5 5 12 11 9 5 5 5 4 4 4 5 8 8 3 3 4 5
8 9 10 12 14 11 14 16 14 14 13 11 10 9 7 6 5 2 5 4 3 3 4 5 6 5 6 11 13 10 3 5 3 4 5 5 6 10 8 4 3 4 6
10 10 13 13 12 11 13 17 14 13 10 9 7 7 4 2 2 5 4 2 2 3 5 5 5 6 7 8 17 16 6 5 4 4 4 3 10 11 9 8 4 5 5
11 11 12 11 10 10 12 12 12 8 7 6 5 3 2 1 3 5 4 3 3 4 5 4 5 4 5 11 14 16 15 11 6 5 5 4 12 12 12 8 9 12 7
8 7 9 9 8 7 6 8 5 4 4 4 3 1 3 4 4 4 5 3 4 3 4 3 2 4 2 4 14 16 18 16 7 6 8 11 12 14 9 11 13 8 3
7 6 8 9 8 7 7 6 5 4 3 2 2 4 4 5 5 4 3 4 3 3 5 4 4 4 3 4 4 6 8 13 8 7 6 5 5 5 5 3 7 4 3
6 6 6 6 5 5 5 3 3 2 2 3 4 4 3 5 5 5 4 4 5 6 5 6 4 4 5 6 9 8 6 8 8 3 1 2 2 4 4 3 4 3 3
5 5 5 5 4 4 3 3 3 2 3 5 4 4 3 4 4 5 6 8 12 12 13 13 9 6 13 12 13 14 18 17 14 4 4 6 5 7 6 5 4 3 4
Wind_Direction
174 174 178 179 176 169 166 163 156 158 149 151 148 143 150 146 108 133 131 116 114 112 102 101 105 105 85 81 59 67 41 354 7 45 349 335 59 77 48 42 51 47 52
163 164 173 170 172 171 176 166 167 166 170 164 140 148 135 128 122 136 124 123 113 108 103 107 79 61 64 43 33 47 27 21 34 99 114 14 338 359 22 70 60 40 43
177 162 170 170 163 173 169 170 174 175 168 163 128 87 79 77 86 140 128 116 115 116 111 102 96 82 73 54 2 227 133 164 33 66 139 28 232 307 314 33 46 40 50
188 157 156 167 168 173 159 165 171 171 181 160 160 163 165 165 169 149 123 102 107 104 106 102 91 89 90 59 356 52 128 126 145 357 56 128 165 189 300 306 349 8 27
183 172 165 165 164 163 168 162 169 181 166 181 169 164 145 130 117 114 111 98 95 111 106 100 94 77 58 50 75 82 84 79 121 148 266 285 220 175 159 249 295 323 274
173 153 140 151 162 171 164 156 150 162 168 161 160 149 134 130 128 122 119 117 105 83 74 73 59 50 36 85 109 110 105 116 153 217 205 179 209 247 212 253 265 233 283
157 154 147 159 159 166 170 157 136 118 125 118 111 129 134 138 142 145 140 139 123 92 75 61 50 55 48 128 155 141 138 144 154 230 233 193 231 199 207 175 257 250 278
162 156 157 160 164 161 160 140 137 126 120 113 117 109 111 116 115 126 122 115 122 131 127 99 61 54 45 359 249 146 186 148 169 229 226 227 226 216 209 190 163 300 279
154 152 151 155 155 152 147 141 134 131 133 128 122 122 124 124 129 124 118 123 131 120 98 84 77 48 356 349 325 227 267 286 262 265 253 214 155 140 184 181 188 163 277
149 158 161 166 165 158 149 140 145 151 153 146 139 140 142 139 138 131 135 140 136 134 124 145 101 351 337 351 360 251 290 286 291 276 243 196 178 185 2 104 142 117 158
175 176 177 175 171 163 158 160 159 156 160 158 155 148 153 157 152 150 156 165 156 158 184 164 148 299 334 109 116 241 266 261 278 273 191 221 190 206 148 140 143 143 137
186 185 180 174 175 176 167 171 171 169 171 164 156 157 156 162 165 166 172 170 176 179 186 166 184 239 255 234 233 242 279 250 177 158 146 172 221 194 146 141 165 188 224
192 188 174 182 185 187 181 177 176 173 165 161 158 161 172 172 175 177 179 178 176 183 175 186 212 229 230 228 222 163 136 148 161 195 217 248 242 207 192 214 218 230 236
187 190 188 195 195 195 187 166 164 169 169 167 165 172 178 180 184 176 167 176 179 167 189 218 231 236 234 229 200 168 161 176 169 168 163 191 174 201 222 227 225 244 265
180 192 196 201 191 180 170 147 169 176 172 171 173 184 188 178 134 133 140 142 164 186 211 237 246 247 231 215 188 183 181 172 169 160 143 192 229 231 193 161 218 215 267
134 200 175 168 180 178 170 172 179 180 176 178 184 182 144 130 134 135 127 144 108 331 265 260 250 253 234 210 186 168 176 176 177 188 211 256 171 155 152 141 149 159 288
68 126 182 187 179 175 177 187 182 167 173 166 149 132 133 129 117 110 71 42 13 307 299 299 284 263 244 191 181 174 176 180 188 192 202 244 183 175 190 201 236 314 327
60 63 163 186 188 179 186 152 142 139 143 131 122 117 120 117 101 88 82 18 307 286 289 292 281 267 239 190 184 173 173 181 198 196 210 219 217 211 207 216 290 305 299
48 50 38 24 47 74 90 96 91 89 84 74 75 69 72 77 60 51 25 281 249 289 286 279 290 252 221 187 185 171 178 191 214 218 224 222 219 214 214 229 285 296 294
52 55 50 56 57 54 91 90 87 86 81 81 86 80 79 68 57 8 261 253 246 267 290 303 294 255 202 197 192 187 171 196 207 231 219 229 199 199 217 218 246 280 284
67 67 65 67 62 66 84 86 84 84 97 96 82 67 88 137 210 243 253 250 291 321 307 304 287 253 224 215 204 199 188 201 197 213 212 213 210 213 233 260 206 227 256
70 67 76 73 74 81 84 88 95 115 123 122 129 177 187 225 253 252 258 257 289 309 297 302 311 276 236 218 222 215 207 199 194 211 216 206 218 224 246 272 261 269 264
72 74 90 88 70 67 73 97 95 67 44 77 103 119 268 274 269 265 270 269 282 247 261 251 275 294 256 231 234 232 224 214 204 214 214 211 222 234 253 265 274 279 253
81 76 79 78 76 69 72 84 90 97 104 120 286 294 286 282 279 277 259 258 261 260 253 252 257 262 253 245 221 221 237 235 225 221 221 201 202 223 233 264 272 245 229
69 74 85 92 91 95 93 106 127 126 331 303 291 292 282 289 288 271 256 253 244 223 240 240 236 250 263 249 234 213 214 219 220 180 156 214 213 236 242 246 246 247 244
97 93 100 98 85 63 35 4 335 324 302 297 285 268 271 273 270 270 282 253 247 256 241 248 240 255 247 250 249 234 237 224 208 195 198 221 220 225 230 235 249 234 243